Change the Weather History Date:

Wednesday, August 28, 2013

  Actual Average Record
Temperature  
Mean Temperature 86 °F -  
Max Temperature 95 °F 90 °F 96 °F (2004)
Min Temperature 77 °F 77 °F 77 °F (2013)
Cooling Degree Days 21    
Growing Degree Days 36 (Base 50)    
Moisture  
Dew Point 76 °F    
Average Humidity 71    
Maximum Humidity 89    
Minimum Humidity 39    
Precipitation  
Precipitation 0.00 in 0.21 in - ()
Sea Level Pressure  
Sea Level Pressure 29.73 in    
Wind  
Wind Speed 5 mph ()    
Max Wind Speed 17 mph    
Max Gust Speed 29 mph    
Visibility 3.7 miles    
Events Rain , Thunderstorm    
Averages and records for this station are not official NWS values.
T = Trace of Precipitation, MM = Missing Value Source: Averaged Metar Reports

Daily Weather History Graph

Daily Weather History Graph

Search for Another Location

Airport or City:

Trip Planner

Search our weather history database for the weather conditions in past years. The results will help you decide how hot, cold, wet, or windy it might be!

Date:

Astronomy

Aug. 28, 2013 Rise Set
Actual Time 5:58 AM IST 6:22 PM IST
Civil Twilight 5:36 AM IST 6:44 PM IST
Nautical Twilight 5:11 AM IST 7:09 PM IST
Astronomical Twilight 4:45 AM IST 7:34 PM IST
Moon 11:56 PM IST (8/28) 12:09 PM IST (8/28)
Length of Visible Light 13h 07m
Length of Day
12h 24m
Waning Gibbous, 51% of the Moon is Illuminated
Aug 28
Waning Gibbous
Aug 28
Last Quarter
Sep 5
New
Sep 12
First Quarter
Sep 19
Full

Hourly Weather History & Observations

Time (IST) Temp. Heat Index Dew Point Humidity Pressure Visibility Wind Dir Wind Speed Gust Speed Precip Events Conditions
12:10 AM 82.4 °F 90.9 °F 77.0 °F 84% 29.71 in 3.7 mi South 4.6 mph - N/A   Partly Cloudy
12:40 AM 82.4 °F 90.9 °F 77.0 °F 84% 29.71 in 3.7 mi SSW 3.5 mph - N/A   Partly Cloudy
1:10 AM 82.4 °F 90.9 °F 77.0 °F 84% 29.71 in 3.7 mi South 3.5 mph - N/A   Partly Cloudy
1:40 AM 82.4 °F 90.9 °F 77.0 °F 84% 29.71 in 3.7 mi South 3.5 mph - N/A   Partly Cloudy
2:10 AM 82.4 °F 90.9 °F 77.0 °F 84% 29.71 in 3.7 mi SSW 3.5 mph - N/A   Scattered Clouds
2:30 AM 82 °F - 78 °F 86% 29.75 in 2 mi SW 4.5 mph - -   Partly Cloudy
2:40 AM 82.4 °F 90.9 °F 77.0 °F 84% 29.71 in 3.7 mi SSW 5.8 mph - N/A   Scattered Clouds
3:10 AM 82.4 °F 90.9 °F 77.0 °F 84% 29.71 in 3.7 mi SSW 8.1 mph - N/A   Scattered Clouds
3:40 AM 82.4 °F 89.5 °F 75.2 °F 79% 29.71 in 3.7 mi SSW 6.9 mph - N/A   Scattered Clouds
4:10 AM 82.4 °F 90.9 °F 77.0 °F 84% 29.71 in 3.7 mi SSW 4.6 mph - N/A   Partly Cloudy
4:40 AM 82.4 °F 90.9 °F 77.0 °F 84% 29.74 in 3.7 mi SSW 5.8 mph - N/A   Partly Cloudy
5:10 AM 80.6 °F 87.1 °F 77.0 °F 89% 29.74 in 3.7 mi WSW 3.5 mph - N/A   Partly Cloudy
5:30 AM 81 °F - 78 °F 89% 29.76 in 2 mi Calm Calm - -   Scattered Clouds
6:10 AM 80.6 °F 87.1 °F 77.0 °F 89% 29.74 in 2.5 mi WSW 4.6 mph - N/A   Haze
6:40 AM 80.6 °F 87.1 °F 77.0 °F 89% 29.74 in 2.2 mi West 3.5 mph - N/A   Haze
7:10 AM 82.4 °F 90.9 °F 77.0 °F 84% 29.77 in 1.9 mi WSW 3.5 mph - N/A   Haze
7:40 AM 82.4 °F 90.9 °F 77.0 °F 84% 29.77 in 1.9 mi WSW 6.9 mph - N/A   Haze
8:10 AM 84.2 °F 94.1 °F 77.0 °F 79% 29.77 in 2.5 mi WSW 9.2 mph - N/A   Haze
8:30 AM 85 °F - 78 °F 73% 29.78 in 6 mi WSW 4.5 mph - -   Scattered Clouds
8:40 AM 86.0 °F 96.9 °F 77.0 °F 74% 29.77 in 2.5 mi SW 11.5 mph - N/A   Haze
9:10 AM 86.0 °F 96.9 °F 77.0 °F 74% 29.77 in 2.5 mi SW 9.2 mph - N/A   Haze
10:10 AM 89.6 °F 99.8 °F 75.2 °F 62% 29.77 in 4.3 mi West 8.1 mph - N/A   Mostly Cloudy
10:40 AM 89.6 °F 99.8 °F 75.2 °F 62% 29.74 in 5.0 mi SW 9.2 mph - N/A   Mostly Cloudy
11:10 AM 91.4 °F 102.5 °F 75.2 °F 59% 29.74 in 5.0 mi WSW 9.2 mph - N/A   Mostly Cloudy
11:30 AM 91 °F - 74 °F 50% 29.76 in 6 mi WSW 6.7 mph - -   Mostly Cloudy
11:40 AM 91.4 °F 102.5 °F 75.2 °F 59% 29.74 in 5.0 mi SW 8.1 mph - N/A   Mostly Cloudy
12:10 PM 91.4 °F 100.1 °F 73.4 °F 55% 29.71 in 5.0 mi WSW 9.2 mph - N/A   Scattered Clouds
12:40 PM 93.2 °F 102.4 °F 73.4 °F 52% 29.71 in 5.0 mi SW 5.8 mph - N/A   Scattered Clouds
1:10 PM 93.2 °F 102.4 °F 73.4 °F 52% 29.68 in 5.0 mi West 5.8 mph - N/A   Scattered Clouds
1:40 PM 93.2 °F 102.4 °F 73.4 °F 52% 29.68 in 5.0 mi West 5.8 mph - N/A   Scattered Clouds
2:10 PM 95.0 °F 103.2 °F 71.6 °F 47% 29.68 in 5.0 mi WNW 5.8 mph - N/A   Scattered Clouds
2:30 PM 95 °F - 73 °F 39% 29.70 in 6 mi NW 2.3 mph - -   Scattered Clouds
2:40 PM 95.0 °F 103.2 °F 71.6 °F 47% 29.65 in 5.0 mi WNW 5.8 mph - N/A   Partly Cloudy
3:10 PM 95.0 °F 103.2 °F 71.6 °F 47% 29.65 in 5.0 mi Variable 3.5 mph - N/A   Partly Cloudy
3:40 PM 95.0 °F 101.3 °F 69.8 °F 44% 29.65 in 5.0 mi Variable 3.5 mph - N/A   Partly Cloudy
4:10 PM 93.2 °F 105.0 °F 75.2 °F 56% 29.65 in 5.0 mi ESE 9.2 mph - N/A   Partly Cloudy
4:40 PM 91.4 °F 102.5 °F 75.2 °F 59% 29.65 in 4.3 mi SE 9.2 mph - N/A   Partly Cloudy
5:10 PM 89.6 °F 99.8 °F 75.2 °F 62% 29.68 in 4.3 mi ESE 9.2 mph - N/A   Partly Cloudy
5:30 PM 89 °F - 77 °F 60% 29.71 in 6 mi SE 8.9 mph - -   Scattered Clouds
5:40 PM 87.8 °F 97.6 °F 75.2 °F 66% 29.68 in 3.7 mi ESE 9.2 mph - N/A   Partly Cloudy
6:10 PM 86.0 °F 96.9 °F 77.0 °F 74% 29.71 in 3.7 mi East 9.2 mph - N/A   Partly Cloudy
7:10 PM 86.0 °F 99.3 °F 78.8 °F 79% 29.74 in 2.5 mi ESE 10.4 mph - N/A   Haze
7:40 PM 84.2 °F 94.1 °F 77.0 °F 79% 29.74 in 2.5 mi East 10.4 mph - N/A   Haze
8:10 PM 84.2 °F 94.1 °F 77.0 °F 79% 29.74 in 2.5 mi ESE 10.4 mph - N/A   Haze
8:30 PM 85 °F - 79 °F 77% 29.78 in 2 mi SE 2.3 mph - -   Partly Cloudy
8:40 PM 84.2 °F 94.1 °F 77.0 °F 79% 29.77 in 2.5 mi SE 6.9 mph - N/A   Haze
9:10 PM 84.2 °F 94.1 °F 77.0 °F 79% 29.77 in 2.5 mi ESE 4.6 mph - N/A   Haze
9:40 PM 80.6 °F 84.6 °F 71.6 °F 74% 29.80 in 2.5 mi SW 17.3 mph 28.8 mph N/A   Haze
10:40 PM 77.0 °F - 73.4 °F 89% 29.80 in 1.9 mi SW 9.2 mph - N/A Rain , Thunderstorm Light Thunderstorms and Rain
11:30 PM 80 °F - 75 °F 79% 29.80 in 2 mi Calm Calm - - Rain Light Drizzle
11:40 PM 78.8 °F - 73.4 °F 83% 29.80 in 2.5 mi Calm Calm - N/A   Haze